When you browse on this site, cookies collect data to enhance your experience and personalize the content and advertising you see.
Visit our Privacy Policy to learn more. By continuing to use the site, you agree to this use of cookies and data.
  • Em Portugal
  • Lista de países
  • Para 7 dias
  • Temperatura da água
  • Mapa do tempo
  • Widgets de tempo
  • user-avatar
    Iniciar Sessão

    Previsão horária em Rutul

    Hoje, 21 Agosto, Quarta-feira

    Tempo Temperatura Precipitação Vento Pressão Humidade
    00:00 +20°C° 0 mm 1 m/s 649 mmHg 57%
    01:00 +20°C° 0 mm 1 m/s 649 mmHg 58%
    02:00 +19°C° 0 mm 1 m/s 649 mmHg 59%
    03:00 +19°C° 0 mm 1 m/s 649 mmHg 60%
    04:00 +19°C° 0 mm 1 m/s 649 mmHg 59%
    05:00 +20°C° 0 mm 1 m/s 649 mmHg 57%
    06:00 +20°C° 0 mm 1 m/s 649 mmHg 56%
    07:00 +23°C° 0 mm 1 m/s 650 mmHg 50%
    08:00 +25°C° 0 mm 1 m/s 650 mmHg 43%
    09:00 +27°C° 0 mm 1 m/s 651 mmHg 37%
    10:00 +28°C° 0 mm 2 m/s 651 mmHg 36%
    11:00 +29°C° 0 mm 2 m/s 651 mmHg 36%
    12:00 +29°C° 0 mm 3 m/s 651 mmHg 35%
    13:00 +29°C° 0 mm 2 m/s 650 mmHg 36%
    14:00 +29°C° 0 mm 2 m/s 650 mmHg 37%
    15:00 +29°C° 0 mm 2 m/s 650 mmHg 38%
    16:00 +27°C° 0 mm 2 m/s 649 mmHg 42%
    17:00 +26°C° 0 mm 2 m/s 648 mmHg 47%
    18:00 +25°C° 0 mm 1 m/s 648 mmHg 51%
    19:00 +23°C° 0 mm 1 m/s 647 mmHg 52%
    20:00 +22°C° 0 mm 1 m/s 647 mmHg 54%
    21:00 +20°C° 0 mm 1 m/s 647 mmHg 56%
    22:00 +20°C° 0 mm 1 m/s 647 mmHg 57%
    23:00 +20°C° 0 mm 1 m/s 647 mmHg 58%

    Amanhã, 22 Agosto, Quinta-feira

    Tempo Temperatura Precipitação Vento Pressão Humidade
    00:00 +20°C° 0 mm 1 m/s 646 mmHg 59%
    01:00 +19°C° 0 mm 1 m/s 646 mmHg 59%
    02:00 +19°C° 0 mm 1 m/s 646 mmHg 60%
    03:00 +19°C° 0 mm 1 m/s 646 mmHg 60%
    04:00 +19°C° 0 mm 1 m/s 646 mmHg 59%
    05:00 +20°C° 0 mm 1 m/s 646 mmHg 58%
    06:00 +20°C° 0 mm 1 m/s 646 mmHg 57%
    07:00 +23°C° 0 mm 1 m/s 647 mmHg 50%
    08:00 +25°C° 0 mm 1 m/s 648 mmHg 43%
    09:00 +27°C° 0 mm 1 m/s 649 mmHg 36%
    10:00 +28°C° 0 mm 2 m/s 649 mmHg 36%
    11:00 +29°C° 0 mm 2 m/s 648 mmHg 35%
    12:00 +29°C° 0 mm 3 m/s 648 mmHg 35%
    13:00 +29°C° 0 mm 3 m/s 648 mmHg 34%
    14:00 +29°C° 0 mm 3 m/s 648 mmHg 34%
    15:00 +29°C° 0 mm 3 m/s 647 mmHg 33%
    16:00 +28°C° 0 mm 2 m/s 647 mmHg 38%
    17:00 +26°C° 0 mm 2 m/s 647 mmHg 43%
    18:00 +25°C° 0 mm 1 m/s 646 mmHg 49%
    19:00 +23°C° 0 mm 1 m/s 646 mmHg 51%
    20:00 +22°C° 0 mm 1 m/s 646 mmHg 53%
    21:00 +20°C° 0 mm 1 m/s 646 mmHg 55%
    22:00 +20°C° 0 mm 1 m/s 646 mmHg 55%
    23:00 +20°C° 0 mm 1 m/s 646 mmHg 54%

    Depois de amanhã, 23 Agosto, Sexta-feira

    Tempo Temperatura Precipitação Vento Pressão Humidade
    00:00 +20°C° 0 mm 1 m/s 646 mmHg 54%
    01:00 +19°C° 0 mm 1 m/s 646 mmHg 54%
    02:00 +19°C° 0 mm 1 m/s 646 mmHg 54%
    03:00 +19°C° 0 mm 1 m/s 646 mmHg 54%
    04:00 +19°C° 0 mm 1 m/s 646 mmHg 53%
    05:00 +20°C° 0 mm 1 m/s 646 mmHg 52%
    06:00 +20°C° 0 mm 1 m/s 646 mmHg 52%
    07:00 +22°C° 0 mm 1 m/s 647 mmHg 45%
    08:00 +25°C° 0 mm 1 m/s 648 mmHg 38%
    09:00 +27°C° 0 mm 2 m/s 649 mmHg 32%
    10:00 +28°C° 0 mm 2 m/s 649 mmHg 32%
    11:00 +28°C° 0 mm 3 m/s 649 mmHg 31%
    12:00 +29°C° 0 mm 3 m/s 649 mmHg 31%
    13:00 +29°C° 0 mm 3 m/s 649 mmHg 32%
    14:00 +29°C° 0 mm 3 m/s 648 mmHg 32%
    15:00 +29°C° 0 mm 3 m/s 648 mmHg 33%
    16:00 +28°C° 0 mm 3 m/s 648 mmHg 39%
    17:00 +26°C° 0 mm 2 m/s 647 mmHg 44%
    18:00 +25°C° 0 mm 1 m/s 647 mmHg 50%
    19:00 +23°C° 0 mm 1 m/s 647 mmHg 52%
    20:00 +22°C° 0 mm 1 m/s 647 mmHg 54%
    21:00 +20°C° 0 mm 1 m/s 647 mmHg 56%
    22:00 +20°C° 0 mm 1 m/s 646 mmHg 55%
    23:00 +20°C° 0 mm 1 m/s 646 mmHg 54%

    24 Agosto, Sábado

    Tempo Temperatura Precipitação Vento Pressão Humidade
    00:00 +20°C° 0 mm 1 m/s 646 mmHg 53%
    01:00 +19°C° 0 mm 1 m/s 646 mmHg 53%
    02:00 +19°C° 0 mm 1 m/s 646 mmHg 53%
    03:00 +19°C° 0 mm 1 m/s 646 mmHg 53%
    04:00 +19°C° 0 mm 1 m/s 646 mmHg 52%
    05:00 +20°C° 0 mm 1 m/s 646 mmHg 51%
    06:00 +20°C° 0 mm 1 m/s 647 mmHg 50%
    07:00 +23°C° 0 mm 1 m/s 648 mmHg 43%
    08:00 +25°C° 0 mm 2 m/s 648 mmHg 37%
    09:00 +27°C° 0 mm 2 m/s 649 mmHg 30%
    10:00 +28°C° 0 mm 2 m/s 649 mmHg 30%
    11:00 +29°C° 0 mm 3 m/s 649 mmHg 31%
    12:00 +29°C° 0 mm 4 m/s 649 mmHg 31%
    13:00 +29°C° 0 mm 3 m/s 649 mmHg 32%
    14:00 +29°C° 0 mm 3 m/s 649 mmHg 34%
    15:00 +28°C° 0 mm 2 m/s 648 mmHg 35%
    16:00 +27°C° 0 mm 2 m/s 648 mmHg 41%
    17:00 +25°C° 0 mm 2 m/s 648 mmHg 46%
    18:00 +24°C° 0 mm 1 m/s 647 mmHg 52%
    19:00 +22°C° 0 mm 1 m/s 648 mmHg 54%
    20:00 +21°C° 0 mm 1 m/s 648 mmHg 56%
    21:00 +20°C° 0 mm 1 m/s 648 mmHg 59%
    22:00 +19°C° 0 mm 1 m/s 648 mmHg 58%
    23:00 +19°C° 0 mm 1 m/s 648 mmHg 58%

    25 Agosto, Domingo

    Tempo Temperatura Precipitação Vento Pressão Humidade
    00:00 +19°C° 0 mm 1 m/s 648 mmHg 58%
    01:00 +19°C° 0.1 mm 1 m/s 648 mmHg 59%
    02:00 +18°C° 0.1 mm 2 m/s 648 mmHg 60%
    03:00 +19°C° 0.1 mm 2 m/s 648 mmHg 62%
    04:00 +19°C° 0.1 mm 2 m/s 648 mmHg 64%
    05:00 +20°C° 0.1 mm 1 m/s 648 mmHg 66%
    06:00 +20°C° 0.1 mm 1 m/s 648 mmHg 68%
    07:00 +21°C° 0 mm 1 m/s 648 mmHg 61%
    08:00 +23°C° 0 mm 2 m/s 649 mmHg 55%
    09:00 +24°C° 0 mm 2 m/s 650 mmHg 48%
    10:00 +25°C° 0.1 mm 2 m/s 649 mmHg 45%
    11:00 +26°C° 0.1 mm 2 m/s 649 mmHg 43%
    12:00 +26°C° 0.1 mm 3 m/s 649 mmHg 41%
    13:00 +26°C° 0.1 mm 3 m/s 649 mmHg 40%
    14:00 +26°C° 0.1 mm 3 m/s 649 mmHg 39%
    15:00 +26°C° 0.1 mm 3 m/s 649 mmHg 38%
    16:00 +25°C° 0 mm 2 m/s 648 mmHg 42%
    17:00 +24°C° 0 mm 2 m/s 648 mmHg 46%
    18:00 +23°C° 0 mm 2 m/s 647 mmHg 49%
    19:00 +21°C° 0 mm 1 m/s 647 mmHg 49%
    20:00 +20°C° 0 mm 1 m/s 647 mmHg 50%
    21:00 +18°C° 0 mm 1 m/s 647 mmHg 50%
    22:00 +18°C° 0 mm 1 m/s 647 mmHg 49%
    23:00 +18°C° 0 mm 1 m/s 647 mmHg 48%

    26 Agosto, Segunda-feira

    Tempo Temperatura Precipitação Vento Pressão Humidade
    00:00 +17°C° 0 mm 2 m/s 647 mmHg 47%
    01:00 +18°C° 0 mm 1 m/s 647 mmHg 47%
    02:00 +18°C° 0 mm 1 m/s 647 mmHg 47%
    03:00 +18°C° 0 mm 1 m/s 647 mmHg 47%
    04:00 +18°C° 0 mm 1 m/s 647 mmHg 49%
    05:00 +18°C° 0 mm 1 m/s 647 mmHg 51%
    06:00 +19°C° 0 mm 1 m/s 647 mmHg 53%
    07:00 +21°C° 0 mm 1 m/s 648 mmHg 48%
    08:00 +23°C° 0 mm 1 m/s 649 mmHg 44%
    09:00 +25°C° 0 mm 1 m/s 649 mmHg 39%
    10:00 +26°C° 0 mm 2 m/s 649 mmHg 39%
    11:00 +26°C° 0 mm 2 m/s 650 mmHg 39%
    12:00 +27°C° 0 mm 2 m/s 650 mmHg 39%
    13:00 +27°C° 0.2 mm 2 m/s 649 mmHg 40%
    14:00 +26°C° 0.2 mm 2 m/s 649 mmHg 42%
    15:00 +26°C° 0.2 mm 2 m/s 649 mmHg 43%
    16:00 +24°C° 0.1 mm 2 m/s 649 mmHg 48%
    17:00 +23°C° 0.1 mm 2 m/s 649 mmHg 53%
    18:00 +22°C° 0.1 mm 1 m/s 648 mmHg 57%
    19:00 +20°C° 0 mm 1 m/s 649 mmHg 60%
    20:00 +19°C° 0 mm 1 m/s 649 mmHg 63%
    21:00 +18°C° 0 mm 1 m/s 649 mmHg 65%
    22:00 +18°C° 0 mm 1 m/s 649 mmHg 66%
    23:00 +18°C° 0 mm 1 m/s 649 mmHg 66%
    Mostrar mais